London, United Kingdom

7:56 AM GMT on February 12, 2016 (GMT +0000)
Heathrow

Weather History for EGLL - October, 2011

Change the Weather History Date:

Tuesday, October 4, 2011

  Actual Average Record
Temperature  
Mean Temperature 62 °F -  
Max Temperature 66 °F 57 °F - ()
Min Temperature 59 °F 45 °F - ()
Degree Days  
Heating Degree Days 2    
Growing Degree Days 12 (Base 50)    
Moisture  
Dew Point 56 °F    
Average Humidity 78    
Maximum Humidity 94    
Minimum Humidity 62    
Precipitation  
Precipitation 0.00 in - - ()
Sea Level Pressure  
Sea Level Pressure 30.12 in    
Wind  
Wind Speed 11 mph ()    
Max Wind Speed 17 mph    
Max Gust Speed -    
Visibility 6.8 miles    
Events Rain    
T = Trace of Precipitation, MM = Missing Value Source: Averaged Metar Reports

Daily Weather History Graph

Daily Weather History Graph

Search for Another Location

Airport or City:

Trip Planner

Search our weather history database for the weather conditions in past years. The results will help you decide how hot, cold, wet, or windy it might be!

Date:

Astronomy

Oct. 04, 2011 Rise Set
Actual Time 7:06 AM BST 6:33 PM BST
Civil Twilight 6:33 AM BST 7:06 PM BST
Nautical Twilight 5:54 AM BST 7:45 PM BST
Astronomical Twilight 5:15 AM BST 8:24 PM BST
Moon 3:10 PM BST (10/4) 11:55 PM BST (10/4)
Length of Visible Light 12h 33m
Length of Day
11h 27m
First Quarter, 53% of the Moon is Illuminated
Oct 4
First Quarter
Oct 12
Full
Oct 20
Last Quarter
Oct 26
New
Nov 2
First Quarter

Hourly Weather History & Observations

Time (BST) Temp. Dew Point Humidity Pressure Visibility Wind Dir Wind Speed Gust Speed Precip Events Conditions
12:20 AM 60.8 °F 59.0 °F 94% 30.09 in 6.2 mi WSW 10.4 mph - N/A   Mostly Cloudy
12:50 AM 62 °F 58 °F 82% 30.10 in 9 mi WSW 10.4 mph - -   Mostly Cloudy
12:50 AM 62.6 °F 57.2 °F 82% 30.09 in 6.2 mi WSW 10.4 mph - N/A   Mostly Cloudy
1:20 AM 62.6 °F 57.2 °F 82% 30.09 in 6.2 mi WSW 12.7 mph - N/A   Overcast
1:50 AM 62.6 °F 57.2 °F 82% 30.09 in 6.2 mi West 10.4 mph - N/A   Overcast
2:20 AM 62.6 °F 55.4 °F 77% 30.09 in 6.2 mi West 9.2 mph - N/A   Overcast
2:50 AM 60.8 °F 55.4 °F 82% 30.09 in 6.2 mi WSW 10.4 mph - N/A   Scattered Clouds
3:20 AM 60.8 °F 55.4 °F 82% 30.09 in 6.2 mi SW 9.2 mph - N/A   Scattered Clouds
3:50 AM 60.8 °F 55.4 °F 82% 30.09 in 6.2 mi WSW 10.4 mph - N/A   Scattered Clouds
4:20 AM 60.8 °F 55.4 °F 82% 30.09 in 6.2 mi West 10.4 mph - N/A   Mostly Cloudy
4:50 AM 60.8 °F 55.4 °F 82% 30.09 in 6.2 mi WSW 11.5 mph - N/A   Mostly Cloudy
5:20 AM 60.8 °F 55.4 °F 82% 30.09 in 6.2 mi WSW 11.5 mph - N/A   Mostly Cloudy
5:50 AM 60.8 °F 53.6 °F 77% 30.09 in 6.2 mi WSW 10.4 mph - N/A   Scattered Clouds
6:20 AM 60.8 °F 53.6 °F 77% 30.09 in 6.2 mi WSW 12.7 mph - N/A   Mostly Cloudy
6:50 AM 60 °F 55 °F 78% 30.12 in 15 mi WSW 10.4 mph - -  
6:50 AM 60.8 °F 55.4 °F 82% 30.12 in 6.2 mi WSW 12.7 mph - N/A   Mostly Cloudy
7:20 AM 60.8 °F 55.4 °F 82% 30.12 in 6.2 mi WSW 13.8 mph - N/A   Mostly Cloudy
7:50 AM 60.8 °F 55.4 °F 82% 30.12 in 6.2 mi WSW 13.8 mph - N/A   Scattered Clouds
8:20 AM 60.8 °F 55.4 °F 82% 30.12 in 6.2 mi West 8.1 mph - N/A   Scattered Clouds
8:50 AM 60.8 °F 55.4 °F 82% 30.12 in 6.2 mi WSW 11.5 mph - N/A   Scattered Clouds
9:20 AM 62.6 °F 55.4 °F 77% 30.15 in 6.2 mi WSW 15.0 mph - N/A   Mostly Cloudy
9:50 AM 63 °F 55 °F 69% 30.15 in 19 mi WSW 13.8 mph - - Rain Rain
9:50 AM 62.6 °F 55.4 °F 77% 30.15 in 6.2 mi WSW 13.8 mph - N/A   Scattered Clouds
10:20 AM 62.6 °F 55.4 °F 77% 30.15 in 6.2 mi WSW 13.8 mph - N/A   Scattered Clouds
10:50 AM 62.6 °F 55.4 °F 77% 30.15 in 6.2 mi WSW 13.8 mph - N/A   Mostly Cloudy
11:20 AM 62.6 °F 55.4 °F 77% 30.15 in 6.2 mi WSW 13.8 mph - N/A   Mostly Cloudy
11:50 AM 62.6 °F 55.4 °F 77% 30.15 in 6.2 mi WSW 13.8 mph - N/A   Mostly Cloudy
12:20 PM 62.6 °F 55.4 °F 77% 30.15 in 6.2 mi West 15.0 mph - N/A   Mostly Cloudy
12:50 PM 62 °F 58 °F 81% 30.16 in 25 mi WSW 16.1 mph - - Rain Rain
12:50 PM 60.8 °F 57.2 °F 88% 30.15 in 6.2 mi West 17.3 mph - N/A   Mostly Cloudy
1:20 PM 64.4 °F 55.4 °F 73% 30.15 in 6.2 mi WSW 17.3 mph - N/A   Scattered Clouds
1:50 PM 64.4 °F 55.4 °F 73% 30.15 in 6.2 mi WSW 15.0 mph - N/A   Mostly Cloudy
2:20 PM 64.4 °F 55.4 °F 73% 30.12 in 6.2 mi West 13.8 mph - N/A   Mostly Cloudy
2:50 PM 64.4 °F 53.6 °F 68% 30.12 in 6.2 mi West 13.8 mph - N/A   Mostly Cloudy
3:20 PM 64.4 °F 53.6 °F 68% 30.12 in 6.2 mi West 16.1 mph - N/A   Mostly Cloudy
3:50 PM 65 °F 55 °F 62% 30.14 in 25 mi WSW 12.7 mph - - Rain Light Rain Showers
3:50 PM 64.4 °F 55.4 °F 73% 30.12 in 6.2 mi WSW 15.0 mph - N/A   Mostly Cloudy
4:20 PM 64.4 °F 55.4 °F 73% 30.12 in 6.2 mi WSW 13.8 mph - N/A   Mostly Cloudy
4:50 PM 64.4 °F 55.4 °F 73% 30.12 in 6.2 mi West 12.7 mph - N/A   Scattered Clouds
5:20 PM 64.4 °F 55.4 °F 73% 30.12 in 6.2 mi WSW 13.8 mph - N/A   Mostly Cloudy
5:50 PM 64.4 °F 55.4 °F 73% 30.12 in 6.2 mi WSW 12.7 mph - N/A   Mostly Cloudy
6:20 PM 64.4 °F 55.4 °F 73% 30.12 in 6.2 mi WSW 13.8 mph - N/A   Scattered Clouds
6:50 PM 64 °F 56 °F 68% 30.14 in 31 mi WSW 11.5 mph - - Rain Light Rain
6:50 PM 64.4 °F 55.4 °F 73% 30.12 in 6.2 mi WSW 11.5 mph - N/A   Mostly Cloudy
7:20 PM 64.4 °F 55.4 °F 73% 30.15 in 6.2 mi WSW 10.4 mph - N/A   Scattered Clouds
7:50 PM 62.6 °F 55.4 °F 77% 30.15 in 6.2 mi WSW 11.5 mph - N/A   Scattered Clouds
8:20 PM 62.6 °F 55.4 °F 77% 30.15 in 6.2 mi SW 9.2 mph - N/A   Partly Cloudy
8:50 PM 62.6 °F 57.2 °F 82% 30.15 in 6.2 mi SW 9.2 mph - N/A   Scattered Clouds
9:20 PM 62.6 °F 57.2 °F 82% 30.15 in 6.2 mi SW 9.2 mph - N/A   Scattered Clouds
9:50 PM 62 °F 56 °F 77% 30.15 in 15 mi SW 10.4 mph - - Rain Light Rain
9:50 PM 60.8 °F 57.2 °F 88% 30.15 in 6.2 mi SW 9.2 mph - N/A   Partly Cloudy
10:20 PM 62.6 °F 57.2 °F 82% 30.15 in 6.2 mi SW 8.1 mph - N/A   Mostly Cloudy
10:50 PM 60.8 °F 57.2 °F 88% 30.12 in 6.2 mi WSW 13.8 mph - N/A   Scattered Clouds
11:20 PM 60.8 °F 55.4 °F 82% 30.12 in 6.2 mi WSW 10.4 mph - N/A   Scattered Clouds
11:50 PM 59.0 °F 55.4 °F 88% 30.12 in 6.2 mi WSW 9.2 mph - N/A   Partly Cloudy